SL-16 DEB, 22291

Orbit data source: Space-Track

SL-16 DEB, 22291 is space debris in LEO originally from a launch on Fri, 25 Dec 1992 UTC launched from the Tyuratam Missile And Space Complex (TTMTR). Debris objects in space refer to the collection of defunct objects orbiting the Earth. Examples of debris include non-operational satellites, rocket bodies, and fragments generated from explosions, collisions, or faulty payload assembly.

Loading next visibility...
Identifier
22291, 1992-093F
Orbit
LEO
Country
Flag of CISCIS
Related business
Manufacturer
Yuzhnoe
Mission
Spacecraft
Bus & Motor
SEP MOTOR COVER, Unknown motor
Mass
~0 kg wet, ~1 kg dry
Launch date (UTC)
1992-12-25 (33 years ago)
Launch vehicle
Unknown
Launch site
Tyuratam Missile And Space Complex (TTMTR)
Object type
Payload
Rocket body
Debris
Shape & HBR
Unknown shape, 0.1 m
Radar Cross Section
Medium (>0.1 m² and <1 m²)

Expand to show TLE details & history
Last TLE update: 2 days ago

TLE from 2 days ago
0 SL-16 DEB
1 22291U 92093F   26171.25515072  .00000046  00000-0  82764-4 0  9994
2 22291  71.0084 118.1900 0206637  40.8316 108.3438 13.72560982676160
Epoch: 2026-06-20T06:07Z
TLE epoch observation values (Epoch: 2026-06-20T06:07:25.022Z)
Latitude
26.95452°
Longitude
-72.16383°
Altitude
1,043.864 km
Speed
7.307 km/s
True Right ascension
19h 12m 39s
True Declination
26° 49' 16"
Sunlit
Object was in full shadow at epoch
Visualization orbit readout
Latitude
Unknown
Longitude
Unknown
Altitude
Unknown
Speed
Unknown
Apparent Right ascension
Unknown
Apparent Declination
Unknown
Sunlit
N/A
Visualization observer readout
Local Sidereal Time
01:06:57
Azimuth
Unknown
Elevation
Unknown
Doppler factor
Unknown
Orbital elements
Apogee altitude
1,140.575 km
Perigee altitude
836.137 km
Semi-major axis
7,366.493 km
Eccentricity
0.02066
Inclination
71.0084°
RAAN
118.19°
Arg. of periapsis
40.8316°
True anomaly
110.57267°
Mean anomaly
108.3438°
Eccentric anomaly
109.46011°
Mean motion
3.43283 °/min
Orbital period
104.87 mins
BSTAR
0.000082764
Loading maneuver chart data...
Computing Atmospheric mass density...
Loading historical data...
Loading historical data...
Loading historical data...
Loading historical data...
Loading historical data...
Loading historical data...
Loading historical data...

Documentation

Showing up to 5 results
|